This is the latest recevied weather packets stored in our database for station/object SR6WVX. If no packets are shown the sender has not sent any weather packets the latest 10 day(s).
| Time | Temp. | Humidity | Pressure | Rain* | Wind** | Luminosity | Snow |
|---|---|---|---|---|---|---|---|
| 1778087031 | 22.22° C | 46% | 999.1 hPa | 0 mm | - | - | - |
| 1778086731 | 22.78° C | 46% | 999.2 hPa | 0 mm | - | - | - |
| 1778086430 | 23.33° C | 44% | 999.1 hPa | 0 mm | - | - | - |
| 1778086130 | 23.33° C | 43% | 999 hPa | 0 mm | - | - | - |
| 1778085830 | 24.44° C | 41% | 999 hPa | 0 mm | - | - | - |
| 1778085530 | 25.56° C | 39% | 999 hPa | 0 mm | - | - | - |
| 1778085229 | 26.11° C | 38% | 999.1 hPa | 0 mm | - | - | - |
| 1778084929 | 26.67° C | 37% | 999.1 hPa | 0 mm | - | - | - |
| 1778084629 | 27.22° C | 36% | 999.3 hPa | 0 mm | - | - | - |
| 1778084329 | 27.78° C | 36% | 999.2 hPa | 0 mm | - | - | - |
| 1778084028 | 27.78° C | 36% | 999.3 hPa | 0 mm | - | - | - |
| 1778083728 | 27.78° C | 34% | 999.3 hPa | 0 mm | - | - | - |
| 1778083428 | 28.33° C | 33% | 999.3 hPa | 0 mm | - | - | - |
| 1778083127 | 28.33° C | 34% | 999.2 hPa | 0 mm | - | - | - |
| 1778082827 | 30° C | 32% | 999.1 hPa | 0 mm | - | - | - |
| 1778082527 | 30.56° C | 32% | 999.2 hPa | 0 mm | - | - | - |
| 1778082227 | 30.56° C | 32% | 999.2 hPa | 0 mm | - | - | - |
| 1778081926 | 30.56° C | 33% | 999.4 hPa | 0 mm | - | - | - |
| 1778081626 | 28.89° C | 35% | 999.4 hPa | 0 mm | - | - | - |
| 1778081326 | 27.22° C | 35% | 999.3 hPa | 0 mm | - | - | - |
| 1778081026 | 28.33° C | 34% | 999.3 hPa | 0 mm | - | - | - |
| 1778080725 | 27.78° C | 34% | 999.4 hPa | 0 mm | - | - | - |
| 1778080425 | 28.89° C | 34% | 999.4 hPa | 0 mm | - | - | - |
| 1778080125 | 28.33° C | 34% | 999.4 hPa | 0 mm | - | - | - |
| 1778079825 | 28.33° C | 34% | 999.5 hPa | 0 mm | - | - | - |
* Rain latest hour (hover to see other rain measurements)
** Current wind speed in m/s (hover to see current wind gust speed)